This demonstration page uses our WeatherBlox Daily Observations layout. Learn more.

Left ArrowRight Arrow

Hourly Observations for December 7, 2022

Temp ( °F °C ) Dew Point ( °F °C ) Humidity (%) Winds ( mph kmh ) Pressure ( in mb ) Visibility ( mi km ) Precip ( " mm )
12:55 am 00:55 Clear 25 -3.7 19 -7.3 76 76 Calm 30.16 1022 10 16 0.00 0.00
1:55 am 01:55 Mostly Clear 25 -4 19 -7.1 79 79 Calm 30.17 1022 10 16 0.00 0.00
2:55 am 02:55 Mostly Cloudy 25 -3.9 18 -8 73 73 Calm 30.19 1023 10 16 0.00 0.00
3:55 am 03:55 Mostly Clear 24 -4.5 18 -7.6 79 79 E 3 6 30.19 1023 10 16 0.00 0.00
4:55 am 04:55 Mostly Clear 23 -5.1 17 -8.2 79 79 E 3 6 30.20 1023 10 16 0.00 0.00
5:55 am 05:55 Clear 23 -5.1 18 -8 80 80 Calm 30.22 1023 10 16 0.00 0.00
6:55 am 06:55 Clear 22 -5.3 17 -8.2 80 80 Calm 30.23 1024 10 16 0.00 0.00
7:55 am 07:55 Sunny 23 -5.2 17 -8.1 80 80 Calm 30.27 1025 10 16 0.00 0.00
8:55 am 08:55 Mostly Sunny 26 -3.2 19 -7 75 75 Calm 30.30 1026 10 16 0.00 0.00
9:55 am 09:55 Sunny 32 0.1 22 -5.3 67 67 WNW 3 6 30.32 1027 10 16 0.00 0.00
10:55 am 10:55 Sunny 37 3 21 -5.9 52 52 WNW 7 11 30.34 1027 10 16 0.00 0.00
11:55 am 11:55 Sunny 40 4.6 21 -6.3 45 45 NNW 13 20 30.33 1027 10 16 0.00 0.00
12:55 pm 12:55 Sunny 39 4.1 20 -6.8 45 45 WNW 10 17 30.34 1027 10 16 0.00 0.00
1:55 pm 13:55 Sunny 38 3.1 19 -7.4 46 46 N 10 17 30.34 1027 10 16 0.00 0.00
2:55 pm 14:55 Sunny 36 2.3 18 -7.6 48 48 N 8 13 30.37 1028 10 16 0.00 0.00
3:55 pm 15:55 Sunny 37 2.7 19 -7.2 48 48 N 7 11 30.38 1029 10 16 0.00 0.00
4:55 pm 16:55 Clear 34 0.9 20 -6.7 57 57 NNE 8 13 30.39 1029 10 16 0.00 0.00
5:55 pm 17:55 Clear 31 -0.8 20 -6.6 65 65 NNE 5 7 30.42 1030 10 16 0.00 0.00
6:55 pm 18:55 Clear 30 -1 20 -6.8 65 65 NNE 5 7 30.42 1030 10 16 0.00 0.00
8:55 pm 20:55 Mostly Cloudy 28 -2.2 19 -7.5 67 67 NE 7 11 30.42 1030 10 16 0.00 0.00
9:55 pm 21:55 Cloudy 26 -3.2 18 -7.7 71 71 NNE 3 6 30.41 1030 10 16 0.00 0.00
10:55 pm 22:55 Mostly Cloudy 25 -3.7 18 -8 72 72 NE 5 7 30.41 1030 10 16 0.00 0.00
11:55 pm 23:55 Cloudy 25 -3.9 18 -8 73 73 NNE 6 9 30.41 1030 10 16 0.00 0.00

Powered by AerisWeather